Regional Weather Roundup
Issued by NWS

Home | Current Version | Previous Version | Graphics & Text | Print | Product List | Glossary On
Versions: 1 2 3 4 5 6 7 8 9 10 11 12 13 14 15 16 17 18 19 20 21 22 23 24 25 26 27 28 29 30 31 32 33 34 35 36 37 38 39 40 41 42 43 44 45 46 47 48 49 50
000
ASUS43 KDTX 290610
RWRMI
MICHIGAN HOURLY REGIONAL WEATHER ROUNDUP
NATIONAL WEATHER SERVICE DETROIT/PONTIAC MI
200 AM EDT TUE JUL 29 2014

NOTE: "FAIR" INDICATES FEW OR NO CLOUDS BELOW 12,000 FEET WITH NO
SIGNIFICANT WEATHER AND/OR OBSTRUCTION TO VISIBILITY.

MIZ047>049-052>055-059>063-066>070-074>076-081>083-290700-
SOUTHEAST LOWER MICHIGAN

CITY           SKY/WX    TMP DP  RH WIND       PRES   REMARKS
ADRIAN         CLEAR     49  47  93 NW3       30.02F
6HR MIN TEMP:  49; 6HR MAX TEMP:  66;

ALMA           CLEAR     48  47  95 CALM      30.01S
6HR MIN TEMP:  48; 6HR MAX TEMP:  60;

ANN ARBOR      CLEAR     44  40  85 CALM      30.01S FOG
BAD AXE        CLEAR     49  48  96 CALM      29.97S
6HR MIN TEMP:  48; 6HR MAX TEMP:  59;

DETROIT CITY   CLOUDY    57  48  72 W5        29.99S
6HR MIN TEMP:  57; 6HR MAX TEMP:  65;

DETROIT        MOCLDY    52  48  86 W6        30.01S
6HR MIN TEMP:  52; 6HR MAX TEMP:  64;

FLINT          MOCLDY    54  47  77 W5        30.00S
6HR MIN TEMP:  54; 6HR MAX TEMP:  61;

GROSSE ILE     MOCLDY    55  50  82 W7        29.99S
HILLSDALE      CLEAR     48  48 100 CALM      30.03R
6HR MIN TEMP:  48; 6HR MAX TEMP:  65;

HOWELL         CLOUDY    51  47  89 W5        30.00F

CITY           SKY/WX    TMP DP  RH WIND       PRES   REMARKS
JACKSON        PTCLDY    50  47  89 W3        30.02S
6HR MIN TEMP:  49; 6HR MAX TEMP:  63;

LAMBERTVILLE   CLEAR     52  48  87 CALM      30.01F
LANSING        CLEAR     51  48  89 CALM      30.02S
6HR MIN TEMP:  50; 6HR MAX TEMP:  62;

LAPEER         NOT AVBL
MASON          CLEAR     49  47  92 CALM      30.01F
MONROE         CLEAR     52  48  87 CALM      29.99S
MT. CLEMENS    CLOUDY    56  47  74 W8        29.97S
6HR MIN TEMP:  55; 6HR MAX TEMP:  60;

PONTIAC        MOCLDY    52  47  83 W3        29.99S
6HR MIN TEMP:  51; 6HR MAX TEMP:  59;

PORT HOPE        N/A     56  48  74 W6        29.94F
6HR MIN TEMP:  56; 6HR MAX TEMP:  62;

PORT HURON     CLOUDY    54  50  87 W3        29.97S
TRI CITIES     CLEAR     53  49  86 SW6       30.00S
6HR MIN TEMP:  53; 6HR MAX TEMP:  62;

YPSILANTI      CLEAR     54  47  77 NW3       30.01S
6HR MIN TEMP:  53; 6HR MAX TEMP:  66;

$$
MIZ043>046-050>051-056>058-064>065-071>073-077>080-290700-
SOUTHWEST LOWER MICHIGAN

CITY           SKY/WX    TMP DP  RH WIND       PRES   REMARKS
BATTLE CREEK   CLEAR     54  49  83 CALM      30.03F
6HR MIN TEMP:  53; 6HR MAX TEMP:  64;

BENTON HARBOR  CLEAR     47  46  97 CALM      30.04F
6HR MIN TEMP:  47; 6HR MAX TEMP:  57;

BIG RAPIDS     CLEAR     49  49 100 CALM      30.00F
6HR MIN TEMP:  49; 6HR MAX TEMP:  61;

COLDWATER      CLEAR     52  51  95 CALM      30.03S
6HR MIN TEMP:  52; 6HR MAX TEMP:  65;

HOLLAND        CLEAR     51  47  86 SW3       30.04F
6HR MIN TEMP:  50; 6HR MAX TEMP:  60;

GRAND RAPIDS   CLEAR     55  51  86 W6        30.02F
6HR MIN TEMP:  54; 6HR MAX TEMP:  66;

KALAMAZOO      CLEAR     51  47  86 CALM      30.03F
6HR MIN TEMP:  51; 6HR MAX TEMP:  63;

MARSHALL       CLEAR     48  47  97 CALM      30.03S
MUSKEGON       CLEAR     51  47  86 CALM      30.03F
6HR MIN TEMP:  50; 6HR MAX TEMP:  62;

$$
MIZ016>042-290700-
NORTHERN LOWER MICHIGAN

CITY           SKY/WX    TMP DP  RH WIND       PRES   REMARKS
ALPENA         CLOUDY    52  50  93 W3        29.95F
6HR MIN TEMP:  52; 6HR MAX TEMP:  63;

BEAVER ISLAND  MOCLDY    59  59  98 W6        29.95F
6HR MIN TEMP:  55; 6HR MAX TEMP:  61;

BELLAIRE       CLOUDY    52  50  94 CALM      29.97F
6HR MIN TEMP:  50; 6HR MAX TEMP:  62;

CADILLAC       CLEAR     48  47  93 CALM      29.99F
CHARLEVOIX     CLOUDY    60  55  82 W6        29.99S
6HR MIN TEMP:  58; 6HR MAX TEMP:  62;

FRANKFORT      RAIN      55  49  80 CALM      30.00S
GAYLORD        PTCLDY    51  48  89 W3        29.98S
6HR MIN TEMP:  50; 6HR MAX TEMP:  61;

GRAYLING       MOCLDY    49  49 100 W5        29.99F
6HR MIN TEMP:  49; 6HR MAX TEMP:  61;

HARBOR SPRINGS PTCLDY    59  55  85 SW5       29.95F
HOUGHTON LAKE  CLEAR     51  47  86 NW5       29.99F
6HR MIN TEMP:  46; 6HR MAX TEMP:  61;

MANISTEE       CLOUDY    48  46  93 CALM      30.01F
OSCODA         CLEAR     50  47  89 W5        29.95F
PELLSTON       PTCLDY    55  54  96 W3        29.95F
6HR MIN TEMP:  55; 6HR MAX TEMP:  64;

TRAVERSE CITY  MOCLDY    55  47  74 CALM      29.97F
6HR MIN TEMP:  55; 6HR MAX TEMP:  64;

$$
MIZ007>008-015-290700-
EASTERN UPPER MICHIGAN

CITY           SKY/WX    TMP DP  RH WIND       PRES   REMARKS
KINROSS        CLOUDY    54  50  87 SW5       29.92F
6HR MIN TEMP:  50; 6HR MAX TEMP:  61;

MACKINAC ISLAN CLOUDY    60  57  89 W7        29.93S
6HR MIN TEMP:  55; 6HR MAX TEMP:  64;

NEWBERRY       MOCLDY    53  51  94 W9        29.94S
S. S. MARIE    CLOUDY    55  50  83 W3        29.91F
6HR MIN TEMP:  52; 6HR MAX TEMP:  56;

$$
MIZ004>006-011>014-085-290700-
CENTRAL UPPER MICHIGAN

CITY           SKY/WX    TMP DP  RH WIND       PRES   REMARKS
MANISTIQUE     PTCLDY    56  53  90 NW6       29.95F
ESCANABA       CLEAR     57  52  82 NW6       29.97S
6HR MIN TEMP:  57; 6HR MAX TEMP:  64;

MENOMINEE      CLEAR     61  54  77 CALM      29.99S
6HR MIN TEMP:  61; 6HR MAX TEMP:  66;

SAWYER-GWINN   CLEAR     56  53  89 NW7       29.98F
6HR MIN TEMP:  56; 6HR MAX TEMP:  66;

$$
MIZ001>003-009>011-084-290700-
WESTERN UPPER MICHIGAN

CITY           SKY/WX    TMP DP  RH WIND       PRES   REMARKS
IRON MOUNTAIN  MOCLDY    59  53  80 W6        29.99F
6HR MIN TEMP:  57; 6HR MAX TEMP:  68;

COPPER HARBOR    N/A     60  53  77 N18G29    29.98R
6HR MIN TEMP:  60; 6HR MAX TEMP:  65;

$$

ABBREVIATIONS USED IN REMARKS
   TC - TEMPERATURE IN CELSIUS
  WCI - WIND CHILL INDEX
   HX - HEAT INDEX
  VSB - VISIBILITY



USA.gov is the U.S. government's official web portal to all federal, state and local government web resources and services.